SCP
0 0 0 0 0 0 0 0 0 0 0 0 0 0 0 0 0 0 0 0 0 0 0 0 0 0 0 0 0 0 0 0 0 0 0 0 0 0 0 0 0 0 0 0
0 0 0 0 0 0 0 0 0 0 0 0 0 0 0 0 0 0 0 0 0 0 0 0 0 0 0 0 0 0 0 0 0 0 0 0 0 0 0 0 0 0 0 0
0 0 0 0 0 0 0 0 0 0 0 0 0 0 0 0 0 0 0 0 0 0 0 0 0 0 0 0 0 0 0 0 0 0 0 0 0 0 0 0 0 0 0 0
0 0 0 0 0 0 0 0 0 0 0 0 0 0 0 0 0 0 0 0 0 0 0 0 0 0 0 0 0 0 0 0 0 0 0 0 0 0 0 0 0 0 0 0
0 0 0 0 0 0 0 0 0 0 0 0 0 0 0 0 0 0 0 0 0 0 0 0 0 0 0 0 0 0 0 0 0 0 0 0 0 0 0 0 0 0 0 0
0 0 0 0 0 0 0 0 0 0 0 0 0 0 0 0 0 0 0 0 0 0 0 0 0 0 0 0 0 0 0 0 0 0 0 0 0 0 0 0 0 0 0 0
0 0 0 0 0 0 0 0 0 0 0 0 0 0 0 0 0 0 0 0 0 0 0 0 0 0 0 0 0 0 0 0 0 0 0 0 0 0 0 0 0 0 0 0
0 0 0 0 0 0 0 0 0 0 0 0 0 0 0 0 0 0 0 0 0 0 0 0 0 0 0 0 0 0 0 0 0 0 0 0 0 0 0 0 0 0 0 0
0 0 0 0 0 0 0 0 0 0 0 0 0 0 0 0 0 0 0 0 0 0 0 0 0 0 0 0 0 0 0 0 0 0 0 0 0 0 0 0 0 0 0 0
-0 0 0 0 0 0 0 0 0 0 0 0 0 0 0 0 0 0 0 0 0 0 0 0 0 0 0 0 0 0 0 0 0 0 0 0 0 0 0 0 0 0 0 0
0 0 0 0 0 0 0 0 0 0 0 0 0 0 0 0 0 0 0 0 0 0 0 0 0 0 0 0 0 0 0 0 0 0 0 0 0 0 0 0 0 0 0 1
0 0 0 0 0 0 0 0 0 0 0 0 0 0 0 0 0 0 0 0 0 0 0 0 0 0 0 0 0 0 0 0 0 0 0 0 0 0 0 0 0 0 0 0
0 0 0 0 0 0 0 0 0 0 0 0 0 0 0 0 0 0 0 0 0 0 0 0 0 0 0 0 0 0 0 0 0 0 0 0 0 0 0 0 0 0 0 0
0 0 0 0 0 0 0 0 0 0 0 0 0 0 0 0 0 0 0 0 0 0 0 0 0 0 0 0 0 0 0 0 0 0 0 0 0 0 0 0 0 0 0 0
0 0 0 0 0 0 0 0 0 0 0 0 0 0 0 0 0 0 0 0 0 0 0 0 0 0 0 0 0 0 0 -0 0 0 -0 0 0 0 0 0 0 0 0 -0
0 0 0 0 0 0 0 0 0 0 0 0 0 0 0 0 0 0 0 0 0 0 0 0 0 0 0 0 0 0 0 0 0 0 -0 0 -0 -0 -0 -0 0 -0 -0 -0
0 0 0 0 0 0 0 0 0 0 0 0 0 0 0 0 0 0 0 0 0 0 0 0 0 0 0 0 0 0 0 0 0 0 0 -0 0 -0 0 0 0 -0 -0 -0
0 0 0 0 0 0 0 0 0 0 0 0 0 0 0 0 0 0 0 0 0 0 0 0 0 0 0 0 0 0 0 -0 0 0 0 0 0 0 0 0 -0 -0 -0 -0
0 0 0 0 0 0 0 0 0 0 0 0 0 0 0 0 0 0 0 0 0 0 0 0 0 0 0 0 0 0 0 0 0 0 0 0 0 0 0 0 0 0 0 0
0 0 0 0 0 0 0 0 0 0 0 0 0 0 0 0 0 0 0 0 0 0 0 0 0 0 0 0 0 0 0 0 0 0 0 0 0 0 0 0 0 0 0 0
0 0 0 0 0 0 0 0 0 0 0 0 0 0 0 0 0 0 0 0 0 0 0 0 0 0 0 0 0 0 0 0 0 0 0 0 0 0 0 0 0 0 0 0
0 0 0 0 0 0 0 0 0 0 0 0 0 0 0 0 0 0 0 0 0 0 0 0 0 0 0 0 0 0 0 0 -0 -0 -0 0 0 0 0 0 0 0 0 0
0 0 0 0 0 0 0 0 0 0 0 0 0 0 0 0 0 0 0 0 0 0 0 0 0 0 0 0 0 0 0 -0 -0 -0 0 0 0 0 0 0 0 0 0 0
0 0 0 0 0 0 0 0 0 0 0 0 0 0 0 0 0 0 0 0 0 0 0 0 0 0 0 0 0 -0 -0 -0 -0 0 0 0 0 0 0 0 0 0 0 0
0 0 0 0 0 0 0 0 0 0 0 0 0 0 0 0 0 0 0 0 0 0 0 0 0 0 0 0 0 0 -0 0 0 0 0 0 0 0 0 0 0 0 0 0
0 0 0 0 0 0 0 0 0 0 0 0 0 0 0 0 0 0 0 0 0 0 0 0 0 0 0 0 0 0 0 0 0 0 0 0 0 0 0 0 0 0 0 0
0 0 0 0 0 0 0 0 0 0 0 0 0 0 0 0 0 0 0 0 0 0 0 0 0 0 0 0 0 0 0 0 0 0 0 0 0 0 0 0 0 0 0 0
Wind_Speed_500mb
56 52 46 40 31 20 10 4 2 6 29 7 1 5 6 3 3 4 5 4 3 2 4 6 7 7 3 11 3 6 3 3 5 8 3 7 5 5 5 8 6 4 9 17
56 53 47 41 31 21 12 6 5 20 4 5 6 5 4 5 3 3 4 5 5 3 2 6 8 6 3 12 7 5 9 2 3 2 7 4 4 2 7 7 3 10 13 12
56 53 49 42 32 24 18 8 4 7 14 7 3 3 8 6 6 10 8 5 4 4 2 5 8 8 4 5 9 11 4 4 1 5 7 5 12 13 11 9 7 9 17 25
57 55 52 43 34 28 21 10 4 5 6 9 9 4 5 3 7 7 9 5 12 6 5 4 7 5 5 6 4 6 3 4 4 10 18 12 14 22 20 16 19 11 13 13
62 56 52 43 37 32 24 11 8 6 1 3 6 10 6 11 7 9 8 8 2 17 6 6 13 12 7 4 5 4 3 5 3 6 1 7 16 22 24 22 20 22 17 24
68 62 55 49 42 36 13 17 11 6 3 4 7 8 8 6 3 12 15 6 1 14 8 3 9 4 14 11 7 4 2 5 2 4 7 18 16 14 19 13 9 8 13 15
66 66 58 49 42 38 22 23 14 6 4 6 6 4 6 5 5 7 5 4 11 5 23 28 23 28 25 22 18 7 6 3 1 6 12 10 7 12 12 22 32 22 23 25
77 66 59 51 45 39 30 19 13 8 4 3 5 3 4 8 3 6 3 9 1 15 11 6 6 4 5 11 13 8 3 6 3 4 6 15 8 15 15 16 20 24 25 23
80 68 60 56 48 37 32 23 22 10 4 6 4 3 5 3 4 3 3 11 11 9 4 4 4 5 3 4 6 7 9 6 3 4 5 7 5 18 27 7 15 44 40 23
79 80 63 51 48 40 32 28 25 15 4 5 2 1 3 2 1 1 5 10 7 7 4 5 3 5 1 5 5 5 4 2 6 6 8 11 11 29 12 10 15 55 40 20
77 74 72 55 50 41 38 32 28 19 6 5 6 3 4 4 6 4 9 1 7 4 6 3 4 3 4 4 1 3 5 7 5 4 7 5 36 9 11 23 45 28 30 29
78 71 66 69 49 40 40 34 28 22 8 6 11 12 7 7 4 4 8 4 3 3 6 3 5 4 4 4 4 2 5 4 1 6 6 9 14 16 21 33 25 21 28 27
76 66 68 58 44 39 41 33 30 21 7 14 22 13 7 6 0 3 3 5 4 5 5 6 4 4 4 6 4 4 6 6 5 5 9 12 12 17 40 41 34 24 17 23
73 62 54 50 46 38 36 27 29 22 8 4 5 15 18 10 4 8 9 13 12 8 6 4 3 2 4 1 3 3 1 7 6 4 10 15 20 29 29 17 38 33 20 22
59 56 52 43 38 38 34 27 27 25 6 2 6 8 15 14 9 11 20 6 7 6 2 3 3 4 4 3 2 5 12 6 5 5 12 22 9 20 15 19 14 17 26 24
42 41 42 46 46 48 33 9 20 20 14 5 2 1 12 19 19 19 16 10 1 2 3 3 2 3 2 2 4 2 12 8 10 11 18 19 28 12 18 29 19 10 10 18
36 40 43 43 48 47 10 7 14 27 14 1 4 2 10 18 22 16 12 10 3 3 1 2 1 4 4 2 3 8 11 12 11 30 22 13 7 7 22 16 18 25 30 35
30 38 42 49 52 25 12 10 21 26 8 3 2 1 8 20 9 9 12 9 9 5 2 2 3 5 2 5 3 3 16 23 12 30 10 11 5 5 12 20 25 34 41 41
39 41 45 51 31 11 12 16 27 19 5 2 1 4 6 13 9 10 8 9 6 4 5 2 6 4 7 2 6 15 22 18 17 27 12 7 18 30 32 32 33 35 33 31
58 48 17 15 20 32 30 8 7 7 2 5 5 4 3 10 7 6 9 2 4 6 4 5 6 4 4 8 7 15 20 12 27 32 22 28 30 28 26 26 24 22 19 16
20 8 8 40 37 14 4 5 3 4 5 8 6 12 3 7 6 6 4 6 4 5 6 5 5 5 4 8 17 17 25 28 19 18 33 30 29 23 20 19 19 18 16 15
15 28 36 32 9 5 4 4 4 7 6 9 9 9 8 5 7 5 3 3 4 4 6 5 5 3 4 15 23 29 29 27 39 37 40 31 25 20 17 15 15 15 15 12
50 19 9 7 4 5 11 12 6 5 9 12 11 8 9 7 4 8 3 5 3 6 5 3 1 9 15 26 34 32 35 42 43 39 31 24 19 15 13 13 13 14 14 13
9 8 3 4 6 6 7 6 5 7 6 19 18 9 5 5 4 1 4 3 4 4 5 5 8 22 30 38 37 41 45 42 39 33 25 19 14 11 11 13 12 12 11 14
6 6 6 7 4 6 6 8 7 6 5 21 12 8 5 5 6 2 4 5 4 5 4 3 20 41 41 33 37 47 46 40 33 24 18 13 10 10 10 11 12 14 18 23
3 3 5 3 4 3 4 10 11 8 17 23 5 5 6 4 6 6 6 8 6 2 4 10 44 46 36 38 45 44 39 32 27 20 14 11 11 10 10 10 13 20 24 27
2 3 4 1 1 0 1 5 7 18 18 9 6 6 2 7 5 7 4 5 1 3 8 41 40 38 40 45 43 38 32 27 20 15 12 12 13 13 12 12 20 24 24 23
Wind_Direction_500mb
207 205 205 210 213 217 223 249 247 340 142 156 209 215 214 279 308 302 289 274 260 276 2 80 103 117 56 358 168 90 66 127 240 271 79 320 311 306 206 257 242 256 294 266
205 202 201 206 204 198 189 188 157 175 104 204 203 233 255 264 257 271 318 295 250 203 58 101 109 128 90 11 68 123 167 67 303 219 145 113 52 177 139 116 197 245 283 292
201 199 199 199 197 188 182 171 157 188 212 243 291 240 235 243 249 236 244 275 297 307 133 34 136 123 57 45 85 81 112 108 287 293 314 309 290 290 300 233 263 291 274 293
197 197 196 195 190 187 178 175 186 195 167 212 227 250 306 284 300 226 205 222 228 200 136 93 114 110 128 67 67 69 33 116 218 256 263 271 271 288 295 252 269 259 299 272
192 194 193 189 189 185 182 159 175 174 175 246 198 181 231 245 241 233 204 215 267 214 202 180 170 147 190 165 94 77 53 152 197 269 303 259 281 282 278 268 268 250 261 272
189 193 189 189 187 185 173 183 170 127 131 204 183 188 224 242 344 237 241 204 27 159 175 179 120 97 113 124 126 109 67 152 232 242 324 309 268 311 294 293 232 257 246 288
192 193 189 187 187 192 190 185 170 153 181 224 204 214 287 229 266 264 339 159 170 151 131 106 94 82 89 85 62 62 137 114 328 300 316 265 40 0 333 318 290 268 271 277
192 192 188 186 192 193 199 188 179 178 218 230 234 282 341 287 235 184 33 46 41 156 165 103 96 61 138 71 46 70 58 131 137 282 295 313 55 29 9 350 307 349 314 301
190 192 187 189 191 191 196 197 202 200 186 199 269 314 16 5 18 119 356 30 98 138 83 96 132 151 112 131 122 76 84 67 249 166 253 269 65 350 339 287 271 2 340 320
192 197 191 193 194 195 192 199 199 195 215 184 169 262 50 28 44 329 356 349 29 43 95 90 128 138 30 176 187 155 148 119 224 170 241 274 24 330 325 258 341 340 338 331
196 188 190 189 191 188 191 197 198 197 208 199 191 133 97 78 42 7 355 205 37 53 76 115 136 160 120 178 135 217 215 194 199 186 245 266 358 1 3 333 322 308 8 28
188 187 192 194 183 182 190 198 196 198 218 240 224 244 256 281 318 18 24 76 71 81 99 111 126 145 164 161 205 159 219 253 61 236 3 46 36 54 9 11 348 45 11 13
178 179 189 178 173 178 194 198 191 192 227 268 264 260 236 224 305 195 51 46 82 76 98 132 120 159 163 194 200 189 188 188 234 249 82 59 54 41 36 26 350 13 56 17
184 180 191 178 171 170 195 189 189 189 178 232 239 227 231 225 222 201 118 97 85 76 71 85 107 123 206 114 64 249 82 166 219 236 146 106 55 43 53 31 42 40 27 18
170 173 174 175 177 184 186 179 185 192 174 261 283 229 199 210 195 170 178 145 69 29 61 70 85 109 157 84 240 242 187 208 224 58 98 116 126 82 67 18 317 300 291 311
147 154 168 175 172 167 154 158 202 200 211 317 313 194 163 178 168 151 162 172 150 46 25 51 123 193 173 183 243 220 192 192 155 149 152 133 131 174 12 356 3 12 24 35
148 157 164 160 158 156 155 171 179 177 179 318 296 83 148 160 162 155 160 161 154 183 207 246 99 150 195 188 273 23 176 172 131 157 127 126 114 337 339 359 40 54 59 57
137 145 149 148 145 137 120 109 155 160 149 65 285 231 146 159 143 139 165 164 178 194 194 201 191 143 222 248 31 272 157 160 133 168 135 101 79 72 99 92 86 75 70 69
135 139 137 141 135 105 109 118 145 154 77 79 227 197 140 160 131 127 143 164 178 189 225 188 187 150 215 229 289 184 166 171 157 155 165 108 107 107 99 88 78 74 68 62
124 122 112 117 149 127 117 99 131 159 240 223 244 211 163 157 150 123 141 162 145 185 131 138 232 228 245 286 227 181 191 196 158 143 137 130 118 112 100 86 78 72 67 58
124 94 91 138 144 137 126 110 138 173 223 207 221 206 141 168 170 141 191 143 154 201 132 243 193 219 183 177 150 148 145 128 132 141 131 125 110 98 82 70 59 53 54 56
119 116 123 128 143 120 131 142 161 209 222 196 184 192 185 153 154 145 161 127 186 166 139 229 218 128 124 148 149 143 143 139 128 127 123 115 99 78 57 45 38 37 36 38
123 116 135 151 156 135 188 178 191 213 195 185 172 161 158 143 141 85 149 165 153 137 194 238 58 137 141 146 142 139 139 132 126 127 119 101 83 63 45 46 46 36 24 29
124 133 79 219 174 213 190 196 189 202 200 173 164 133 155 133 111 113 145 90 181 170 214 214 154 160 149 141 142 144 140 139 136 130 124 103 78 62 68 68 53 41 57 70
112 137 160 194 214 245 233 231 250 202 176 161 145 109 138 75 105 40 117 162 210 228 226 180 159 159 155 154 154 152 150 145 140 134 122 107 86 76 76 62 52 75 88 95
105 131 164 182 181 157 190 221 241 213 164 163 160 134 126 125 138 168 197 174 212 201 212 165 155 162 168 161 159 157 151 150 141 132 118 99 83 85 80 67 89 104 108 103
55 92 33 43 86 218 144 168 175 161 156 173 144 127 94 113 143 176 204 206 107 216 170 154 157 160 155 158 159 156 153 144 135 131 123 112 99 101 81 92 118 122 114 106
Wind_Speed_850mb
56 52 46 40 31 20 10 4 2 6 29 7 1 5 6 3 3 4 5 4 3 2 4 6 7 7 3 11 3 6 3 3 5 8 3 7 5 5 5 8 6 4 9 17
56 53 47 41 31 21 12 6 5 20 4 5 6 5 4 5 3 3 4 5 5 3 2 6 8 6 3 12 7 5 9 2 3 2 7 4 4 2 7 7 3 10 13 12
56 53 49 42 32 24 18 8 4 7 14 7 3 3 8 6 6 10 8 5 4 4 2 5 8 8 4 5 9 11 4 4 1 5 7 5 12 13 11 9 7 9 17 25
57 55 52 43 34 28 21 10 4 5 6 9 9 4 5 3 7 7 9 5 12 6 5 4 7 5 5 6 4 6 3 4 4 10 18 12 14 22 20 16 19 11 13 13
62 56 52 43 37 32 24 11 8 6 1 3 6 10 6 11 7 9 8 8 2 17 6 6 13 12 7 4 5 4 3 5 3 6 1 7 16 22 24 22 20 22 17 24
68 62 55 49 42 36 13 17 11 6 3 4 7 8 8 6 3 12 15 6 1 14 8 3 9 4 14 11 7 4 2 5 2 4 7 18 16 14 19 13 9 8 13 15
66 66 58 49 42 38 22 23 14 6 4 6 6 4 6 5 5 7 5 4 11 5 23 28 23 28 25 22 18 7 6 3 1 6 12 10 7 12 12 22 32 22 23 25
77 66 59 51 45 39 30 19 13 8 4 3 5 3 4 8 3 6 3 9 1 15 11 6 6 4 5 11 13 8 3 6 3 4 6 15 8 15 15 16 20 24 25 23
80 68 60 56 48 37 32 23 22 10 4 6 4 3 5 3 4 3 3 11 11 9 4 4 4 5 3 4 6 7 9 6 3 4 5 7 5 18 27 7 15 44 40 23
79 80 63 51 48 40 32 28 25 15 4 5 2 1 3 2 1 1 5 10 7 7 4 5 3 5 1 5 5 5 4 2 6 6 8 11 11 29 12 10 15 55 40 20
77 74 72 55 50 41 38 32 28 19 6 5 6 3 4 4 6 4 9 1 7 4 6 3 4 3 4 4 1 3 5 7 5 4 7 5 36 9 11 23 45 28 30 29
78 71 66 69 49 40 40 34 28 22 8 6 11 12 7 7 4 4 8 4 3 3 6 3 5 4 4 4 4 2 5 4 1 6 6 9 14 16 21 33 25 21 28 27
76 66 68 58 44 39 41 33 30 21 7 14 22 13 7 6 0 3 3 5 4 5 5 6 4 4 4 6 4 4 6 6 5 5 9 12 12 17 40 41 34 24 17 23
73 62 54 50 46 38 36 27 29 22 8 4 5 15 18 10 4 8 9 13 12 8 6 4 3 2 4 1 3 3 1 7 6 4 10 15 20 29 29 17 38 33 20 22
59 56 52 43 38 38 34 27 27 25 6 2 6 8 15 14 9 11 20 6 7 6 2 3 3 4 4 3 2 5 12 6 5 5 12 22 9 20 15 19 14 17 26 24
42 41 42 46 46 48 33 9 20 20 14 5 2 1 12 19 19 19 16 10 1 2 3 3 2 3 2 2 4 2 12 8 10 11 18 19 28 12 18 29 19 10 10 18
36 40 43 43 48 47 10 7 14 27 14 1 4 2 10 18 22 16 12 10 3 3 1 2 1 4 4 2 3 8 11 12 11 30 22 13 7 7 22 16 18 25 30 35
30 38 42 49 52 25 12 10 21 26 8 3 2 1 8 20 9 9 12 9 9 5 2 2 3 5 2 5 3 3 16 23 12 30 10 11 5 5 12 20 25 34 41 41
39 41 45 51 31 11 12 16 27 19 5 2 1 4 6 13 9 10 8 9 6 4 5 2 6 4 7 2 6 15 22 18 17 27 12 7 18 30 32 32 33 35 33 31
58 48 17 15 20 32 30 8 7 7 2 5 5 4 3 10 7 6 9 2 4 6 4 5 6 4 4 8 7 15 20 12 27 32 22 28 30 28 26 26 24 22 19 16
20 8 8 40 37 14 4 5 3 4 5 8 6 12 3 7 6 6 4 6 4 5 6 5 5 5 4 8 17 17 25 28 19 18 33 30 29 23 20 19 19 18 16 15
15 28 36 32 9 5 4 4 4 7 6 9 9 9 8 5 7 5 3 3 4 4 6 5 5 3 4 15 23 29 29 27 39 37 40 31 25 20 17 15 15 15 15 12
50 19 9 7 4 5 11 12 6 5 9 12 11 8 9 7 4 8 3 5 3 6 5 3 1 9 15 26 34 32 35 42 43 39 31 24 19 15 13 13 13 14 14 13
9 8 3 4 6 6 7 6 5 7 6 19 18 9 5 5 4 1 4 3 4 4 5 5 8 22 30 38 37 41 45 42 39 33 25 19 14 11 11 13 12 12 11 14
6 6 6 7 4 6 6 8 7 6 5 21 12 8 5 5 6 2 4 5 4 5 4 3 20 41 41 33 37 47 46 40 33 24 18 13 10 10 10 11 12 14 18 23
3 3 5 3 4 3 4 10 11 8 17 23 5 5 6 4 6 6 6 8 6 2 4 10 44 46 36 38 45 44 39 32 27 20 14 11 11 10 10 10 13 20 24 27
2 3 4 1 1 0 1 5 7 18 18 9 6 6 2 7 5 7 4 5 1 3 8 41 40 38 40 45 43 38 32 27 20 15 12 12 13 13 12 12 20 24 24 23
Wind_Direction_850mb
207 205 205 210 213 217 223 249 247 340 142 156 209 215 214 279 308 302 289 274 260 276 2 80 103 117 56 358 168 90 66 127 240 271 79 320 311 306 206 257 242 256 294 266
205 202 201 206 204 198 189 188 157 175 104 204 203 233 255 264 257 271 318 295 250 203 58 101 109 128 90 11 68 123 167 67 303 219 145 113 52 177 139 116 197 245 283 292
201 199 199 199 197 188 182 171 157 188 212 243 291 240 235 243 249 236 244 275 297 307 133 34 136 123 57 45 85 81 112 108 287 293 314 309 290 290 300 233 263 291 274 293
197 197 196 195 190 187 178 175 186 195 167 212 227 250 306 284 300 226 205 222 228 200 136 93 114 110 128 67 67 69 33 116 218 256 263 271 271 288 295 252 269 259 299 272
192 194 193 189 189 185 182 159 175 174 175 246 198 181 231 245 241 233 204 215 267 214 202 180 170 147 190 165 94 77 53 152 197 269 303 259 281 282 278 268 268 250 261 272
189 193 189 189 187 185 173 183 170 127 131 204 183 188 224 242 344 237 241 204 27 159 175 179 120 97 113 124 126 109 67 152 232 242 324 309 268 311 294 293 232 257 246 288
192 193 189 187 187 192 190 185 170 153 181 224 204 214 287 229 266 264 339 159 170 151 131 106 94 82 89 85 62 62 137 114 328 300 316 265 40 0 333 318 290 268 271 277
192 192 188 186 192 193 199 188 179 178 218 230 234 282 341 287 235 184 33 46 41 156 165 103 96 61 138 71 46 70 58 131 137 282 295 313 55 29 9 350 307 349 314 301
190 192 187 189 191 191 196 197 202 200 186 199 269 314 16 5 18 119 356 30 98 138 83 96 132 151 112 131 122 76 84 67 249 166 253 269 65 350 339 287 271 2 340 320
192 197 191 193 194 195 192 199 199 195 215 184 169 262 50 28 44 329 356 349 29 43 95 90 128 138 30 176 187 155 148 119 224 170 241 274 24 330 325 258 341 340 338 331
196 188 190 189 191 188 191 197 198 197 208 199 191 133 97 78 42 7 355 205 37 53 76 115 136 160 120 178 135 217 215 194 199 186 245 266 358 1 3 333 322 308 8 28
188 187 192 194 183 182 190 198 196 198 218 240 224 244 256 281 318 18 24 76 71 81 99 111 126 145 164 161 205 159 219 253 61 236 3 46 36 54 9 11 348 45 11 13
178 179 189 178 173 178 194 198 191 192 227 268 264 260 236 224 305 195 51 46 82 76 98 132 120 159 163 194 200 189 188 188 234 249 82 59 54 41 36 26 350 13 56 17
184 180 191 178 171 170 195 189 189 189 178 232 239 227 231 225 222 201 118 97 85 76 71 85 107 123 206 114 64 249 82 166 219 236 146 106 55 43 53 31 42 40 27 18
170 173 174 175 177 184 186 179 185 192 174 261 283 229 199 210 195 170 178 145 69 29 61 70 85 109 157 84 240 242 187 208 224 58 98 116 126 82 67 18 317 300 291 311
147 154 168 175 172 167 154 158 202 200 211 317 313 194 163 178 168 151 162 172 150 46 25 51 123 193 173 183 243 220 192 192 155 149 152 133 131 174 12 356 3 12 24 35
148 157 164 160 158 156 155 171 179 177 179 318 296 83 148 160 162 155 160 161 154 183 207 246 99 150 195 188 273 23 176 172 131 157 127 126 114 337 339 359 40 54 59 57
137 145 149 148 145 137 120 109 155 160 149 65 285 231 146 159 143 139 165 164 178 194 194 201 191 143 222 248 31 272 157 160 133 168 135 101 79 72 99 92 86 75 70 69
135 139 137 141 135 105 109 118 145 154 77 79 227 197 140 160 131 127 143 164 178 189 225 188 187 150 215 229 289 184 166 171 157 155 165 108 107 107 99 88 78 74 68 62
124 122 112 117 149 127 117 99 131 159 240 223 244 211 163 157 150 123 141 162 145 185 131 138 232 228 245 286 227 181 191 196 158 143 137 130 118 112 100 86 78 72 67 58
124 94 91 138 144 137 126 110 138 173 223 207 221 206 141 168 170 141 191 143 154 201 132 243 193 219 183 177 150 148 145 128 132 141 131 125 110 98 82 70 59 53 54 56
119 116 123 128 143 120 131 142 161 209 222 196 184 192 185 153 154 145 161 127 186 166 139 229 218 128 124 148 149 143 143 139 128 127 123 115 99 78 57 45 38 37 36 38
123 116 135 151 156 135 188 178 191 213 195 185 172 161 158 143 141 85 149 165 153 137 194 238 58 137 141 146 142 139 139 132 126 127 119 101 83 63 45 46 46 36 24 29
124 133 79 219 174 213 190 196 189 202 200 173 164 133 155 133 111 113 145 90 181 170 214 214 154 160 149 141 142 144 140 139 136 130 124 103 78 62 68 68 53 41 57 70
112 137 160 194 214 245 233 231 250 202 176 161 145 109 138 75 105 40 117 162 210 228 226 180 159 159 155 154 154 152 150 145 140 134 122 107 86 76 76 62 52 75 88 95
105 131 164 182 181 157 190 221 241 213 164 163 160 134 126 125 138 168 197 174 212 201 212 165 155 162 168 161 159 157 151 150 141 132 118 99 83 85 80 67 89 104 108 103
55 92 33 43 86 218 144 168 175 161 156 173 144 127 94 113 143 176 204 206 107 216 170 154 157 160 155 158 159 156 153 144 135 131 123 112 99 101 81 92 118 122 114 106